Location: Bastelaar
(51.0950°N, 3.8602°E)
Time: 07:14:48
(UTC+00:00)

ISS - Pass Details

Date: 18 November 2025
Orbit: 416 x 420 km, 51.6° (Epoch: 12 December)

Event Time Altitude Azimuth Distance (km) Brightness Sun altitude
Rises 16:21:21 0° 216° (SW) 2,362 1.3 -4.8°
Reaches altitude 10° 16:23:41 10° 202° (SSW) 1,499 -0.2 -5.2°
Maximum altitude 16:26:28 24° 146° (SE) 906 -2.1 -5.6°
Drops below altitude 10° 16:29:16 10° 90° (E) 1,502 -1.5 -6.0°
Enters shadow 16:29:58 - 84° (E) 1,749 -1.2 -6.1°
